Regional Weather Roundup
Issued by NWS Wakefield, VA

Home | Current Version | Previous Version | Graphics & Text | Print | Product List | Glossary On
Versions: 1 2 3 4 5 6 7 8 9 10 11 12 13 14 15 16 17 18 19 20 21 22 23 24 25 26 27
000
ASUS41 KAKQ 292315
RWRAKQ

REGIONAL WEATHER ROUNDUP
NATIONAL WEATHER SERVICE WAKEFIELD VA
700 PM EDT SAT APR 29 2017

Note: "fair" indicates few or no clouds below 12,000 feet with no
significant weather and/or obstructions to visibility. * = Denotes
station may not report precipitation (e.g., rain,snow,etc.),
thunder or fog.

VAZ042-051-052>054-056-300000-
NORTHERN VIRGINIA

CITY           SKY/WX    TMP DP  RH WIND       PRES   REMARKS
WASH NATIONAL  CLOUDY    84  68  58 S9        30.03S
DULLES         CLOUDY    84  69  60 CALM      30.04S
FORT BELVOIR   CLOUDY    84  70  62 S3        30.03S
QUANTICO       PTSUNNY   79  71  76 S7        30.04S
FREDERICKSBRG* CLOUDY    86  72  62 S3        30.04R
STAFFORD*      CLOUDY    84  69  61 S5        30.07S
WARRENTON      PTSUNNY   84  67  56 CALM      30.05R
CULPEPER*      CLOUDY    84  72  66 S3        30.05S
MANASSAS*        N/A     83  74  74 SE5       30.04S
LEESBURG*      CLOUDY    86  70  58 CALM      30.05S
WINCHESTER     MOSUNNY   81  68  65 CALM      30.05S
FRONT ROYAL*   MOCLDY    82  72  69 CALM      30.04S
LURAY*         CLOUDY    82  72  69 CALM      30.06R
$$

VAZ048-049-060>072-079>083-300000-
CENTRAL AND SOUTH CENTRAL VIRGINIA

CITY           SKY/WX    TMP DP  RH WIND       PRES   REMARKS
RICHMOND       PTSUNNY   85  71  63 W9        30.06S
CHESTERFIELD*  FAIR     N/A N/A N/A S8        30.08S
PETERSBURG*    SUNNY     84  69  59 SW7       30.08F
HANOVER        MOSUNNY   85  69  58 SW10      30.08R
TAPPAHANNOCK*  CLEAR     86  64  47 S5        30.06S
QUINTON*       FAIR      85  73  65 SW3       30.06S
CHARLOTTSVILLE MOSUNNY   85  70  60 S9        30.05S
GORDONSVILLE*  CLOUDY    84  72  65 S6        30.05R
ORANGE*        CLOUDY    82  70  65 S3        30.05S
LOUISA*          N/A    N/A N/A N/A MISG      30.05S
BUMPASS*       FAIR      84  73  69 SW5       30.06S
FARMVILLE*     SUNNY     85  72  65 SW5       30.07R
CREWE*         FAIR      83  74  72 S6        30.08F
FORT PICKETT*  NOT AVBL
CHASE CITY*    FAIR      84  71  65 S5        30.11S
CLARKSVILLE*   FAIR      82  72  69 S6        30.10F
SOUTH HILL*    SUNNY     82  74  76 S7        30.16F
LAWRENCEVILLE* FAIR      83  72  69 MISG      30.10F
EMPORIA*       SUNNY     82  72  69 S5        30.12S
$$

VAZ088>098-300000-
SOUTHEAST VIRGINIA

CITY           SKY/WX    TMP DP  RH WIND       PRES   REMARKS
NORFOLK        PTCLDY    87  71  58 SW15      30.07S
VIRGINIA BEACH MOCLDY    85  70  60 SW12      30.07S
NORFOLK NAVAL  MOCLDY    85  70  60 SW10G21   30.09S
WEST POINT*    CLEAR     85  69  60 SW3       30.07S
SALUDA*        FAIR      86  74  68 CALM      30.06R
NEWPORT NEWS   CLEAR     84  72  67 SW12      30.07R
LANGLEY AFB    CLEAR     86  74  67 SW18      30.06S
FORT EUSTIS    PTCLDY    87  73  63 SW5       30.05S
WILLIAMSBURG*  CLEAR     88  73  62 SW5       30.08R HX  96
HR EXEC AP*    FAIR      84  72  65 SW8       30.06S
FRANKLIN*      CLEAR     84  71  63 SW7       30.10S
US460-WAKEFLD  CLEAR     85  72  65 SW12      30.08S
$$

VAZ020-022-025-037-045-300000-
WEST CENTRAL AND SOUTHWEST VIRGINIA

CITY           SKY/WX    TMP DP  RH WIND       PRES   REMARKS
STAUNTON*      CLOUDY    81  67  63 S5        30.09S
WAYNESBORO*    CLOUDY    82  69  65 S5        30.10S
HOT SPRINGS VA NOT AVBL
LYNCHBURG      SUNNY     81  68  64 S7        30.11R
DANVILLE       MOSUNNY   83  72  69 VRB3      30.10F
SOUTH BOSTON*  FAIR      84  71  63 S7        30.10S
MARTINSVILLE   MOSUNNY   82  68  62 SW3       30.14S
ROANOKE        CLOUDY    82  67  60 S9        30.11R
BLACKSBURG     CLOUDY    79  65  62 S8        30.17S
DUBLIN*        CLOUDY    79  61  54 S9G17     30.14F
MARION*        CLOUDY    64  63  96 CALM      30.17F
HILLSVILLE*    CLOUDY    75  68  78 S5        30.17F
RICHLANDS*     MOCLDY    77  59  53 E3        30.14R
WISE*          PTSUNNY   81  59  47 SW8       30.13S
ABINGDON*      CLOUDY    78  63  61 E8        30.10S
$$

MDZ021>025-VAZ099-100-300000-
SOUTHERN MARYLAND AND THE DELMARVA PENINSULA

CITY           SKY/WX    TMP DP  RH WIND       PRES   REMARKS
PATUXENT RIVER CLOUDY    75  71  87 E3        30.04S
BAY BRIDGE APT CLOUDY    81  70  69 N5        30.03S
LEONARDTOWN    CLOUDY    82  68  61 SW3       30.06S
DOVER          PTCLDY    84  76  76 SW3       30.02S
GEORGETOWN     CLOUDY    86  72  62 SW6       30.04F
EASTON         CLOUDY    84  72  65 SW6       30.07S
CAMBRIDGE      CLEAR     82  73  74 SE6       30.05R
SALISBURY      CLOUDY    83  74  74 S6        30.05S
OCEAN CITY     CLOUDY    73  67  81 S7        30.07R
WALLOPS ISLAND PTCLDY    74  70  87 S7        30.07S
ACCOMACK*      PTCLDY    85  73  67 W6        30.07S
$$

NCZ012>017-030>032-300000-
NORTH CENTRAL AND EASTERN NORTH CAROLINA

CITY           SKY/WX    TMP DP  RH WIND       PRES   REMARKS
ROANOKE RAPIDS FAIR      82  72  69 S7        30.11F
RALEIGH        PTSUNNY   85  68  56 S13       30.13S
ELIZABETH CITY CLEAR     83  73  72 S12       30.12S
AHOSKIE*         N/A     82  71  67 S3        30.12S
EDENTON*       CLEAR     85  71  63 SW8       30.13S
CURRITUCK*     CLEAR     85  70  59 SW6       30.12S
KILL DEVIL HLS CLEAR     79  71  74 S7        30.13S
MANTEO         CLEAR     78  72  80 SW15      30.15S
CAPE HATTERAS  CLEAR     77  71  82 SW13      30.19S HAZE
TARBORO*       NOT AVBL
GOLDSBORO      SUNNY     86  67  54 S5        30.12S
WASHINGTON     CLEAR     84  73  70 S8        30.14S
GREENVILLE     PTCLDY    86  70  58 SW5       30.15S
NEW BERN       CLEAR     80  71  74 S10G23    30.18R
WILMINGTON     SUNNY     79  69  71 S14G22    30.18S
$$

VAZ048-300000-
ELSEWHERE

CITY           SKY/WX    TMP DP  RH WIND       PRES   REMARKS
HARRISBURG PA  PTSUNNY   77  66  68 CALM      30.02S
BALTIMORE      PTSUNNY   85  66  53 N5        30.02S
ANNAPOLIS      CLOUDY    80  71  74 CALM      30.03R
ANDREWS AFB    SUNNY     84  70  63 S5        30.03S
PHILADELPHIA   MOCLDY    83  59  44 W5        30.02F
HENDERSON NC   SUNNY     81  68  64 S6        30.12S
GREENSBORO     PTSUNNY   82  71  69 S14       30.13S
ROCKY MOUNT    SUNNY     84  71  65 S8        30.13S
$$

VAZ100-300000-
MARINE

STATION/POSITION TIME  TEMP    WIND        PRES    WAVE   SWELL
                       AIR SEA DIR/SP/G            HT/PER HT/PER
                 (UTC) (F)     (DEG/KT/KT) (MB)    (FT/S) (FT/S)
CAPE MAY NJ      2242   75 62  260/  3/  3 1016.8F
LEWES DE         2248   81 58   CALM  /  1 1017.1F
15NM E FENWICK I 2250   62 58  200/ 14/ 16 1018.1R   3/ 6   2/11
OCEAN-CITY-INLET 2248   63 67  210/ 12/ 15 1018.3R
WACHAPREAGUE VA  2248   77 79  170/  5/  7 1017.8R
THOMAS POINT MD  2300   83 61  190/ 10/ 12   N/A
GOOSES REEF MD   2300   71 60  180/  8/  8 1017.9    1
COVE POINT MD    2248   70     170/  8/  9 1017.9R
SOLOMONS ISLAND  2248   81 63  240/  3/  4   N/A
BISHOPS HEAD MD  2248   73 72  160/  7/  7 1018.0F
PINEY POINT MD   2248          290/  2/  3   N/A
POTOMAC MD       2300   76 68  230/  8/  8 1016.4    1
CAMBRIDGE MD     2242   85 68                N/A
LEWISETTA VA     2248   85 71  240/  6/  7 1017.1F
RAPPAHANNOCK LGT 2248          190/ 10/ 11 1018.6R
STINGRAY PT      2250   80     250/  6/  6 1018.2R
YORK RVR RNG VA  2248   83     240/ 14/ 16 1017.3R
YORKTOWN VA      2248   85 69  230/  9/ 12 1017.5R
JAMESTOWN VA     2300   85 73  220/  8/ 12   N/A
DOMINION TERM VA 2248   80     220/ 10/ 11 1018.7R
KIPTOPEKE VA     2248      67  200/  6/  9   N/A
CHES BAY BRIDGE  2236   84 67  250/ 16/ 19 1018.1S
CAPE HENRY VA    2236   87     210/  7/ 12   N/A
WILLOUBY STN VA  2248   82     230/ 17/ 19 1019.3S
S CRANEY ISL VA  2248   86     220/ 10/ 16 1018.4R
CAPE HENRY BUOY  2242      64                N/A     2/ 6
1ST LANDING BUOY 2300   76 63              1018.3    1/ 3
CAPE CHARLES BUO 2251      67                N/A     2/ 6
64NM E OF VA BCH 2250   65 58  210/ 17/ 19 1019.9F   3/ 4   2/ 7
DUCK PIER NC     2236   81 58  190/ 13/ 16 1019.5F
44100 DUCK FRF   2235      62                N/A     3/ 7
44056 DUCK FRF   2230      61                N/A     2/ 7
OREGON INLET NC  2248          200/ 21/ 23 1021.1S
HATTERAS NC      2236   76 75  200/  9/ 15 1022.2R
DIAMOND SHLS NC  2250   77 76  220/ 16/ 17 1022.5R   4/ 7   2/ 7
CAPE LOOKOUT NC  2300   75     200/ 10/ 12 1022.4R
$$




USA.gov is the U.S. government's official web portal to all federal, state and local government web resources and services.